Tracking 25620 objects as of 18-May-2022
HD Live streaming from Space Station
objects crossing your sky now

AEROCUBE 7C

Track AEROCUBE 7C now!
10-day predictions


NORAD ID: 43043
Int'l Code: 2017-071G
Perigee: 359.4 km
Apogee: 367.8 km
Inclination: 51.6 °
Period: 91.7 minutes
Semi major axis: 6734 km
RCS: Unknown
Launch date: November 12, 2017
Source: United States (US)
Launch site: WALLOPS ISLAND (WLPIS)
aabbcc
Your satellite tracking list
Your tracking list is empty




NASA's NSSDC Master Catalog

Two Line Element Set (TLE):
1 43043U 17071G   22137.78273200  .00143285  00000-0  11104-2 0  9996
2 43043  51.6302 202.4068 0006284   8.6705 351.4400 15.70850948250800
Source of the keplerian elements: AFSPC